2023/01/14 00:00:00,16.6, 5.9
2023/01/14 00:10:00,16.5, 6.3
2023/01/14 00:20:00,16.5, 6.5
2023/01/14 00:30:00,16.5, 6.2
2023/01/14 00:40:00,16.5, 6.0
2023/01/14 00:50:00,16.3, 5.7
2023/01/14 01:00:00,15.7, 5.8
2023/01/14 01:10:00,15.7, 6.2
2023/01/14 01:20:00,15.7, 6.1
2023/01/14 01:30:00,15.7, 5.7
2023/01/14 01:40:00,15.9, 5.8
2023/01/14 01:50:00,15.9, 5.9
2023/01/14 02:00:00,15.7, 5.8
2023/01/14 02:10:00,15.6, 5.7
2023/01/14 02:20:00,15.3, 5.6
2023/01/14 02:30:00,15.4, 6.3
2023/01/14 02:40:00,15.3, 6.2
2023/01/14 02:50:00,14.9, 5.9
2023/01/14 03:00:00,14.3, 6.0
2023/01/14 03:10:00,14.2, 6.2
2023/01/14 03:20:00,14.1, 6.2
2023/01/14 03:30:00,14.1, 5.8
2023/01/14 03:40:00,14.2, 6.2
2023/01/14 03:50:00,14.4, 6.0
2023/01/14 04:00:00,13.9, 6.0
2023/01/14 04:10:00,13.7, 6.3
2023/01/14 04:20:00,13.3, 6.5
2023/01/14 04:30:00,13.3, 6.0
2023/01/14 04:40:00,13.4, 6.4
2023/01/14 04:50:00,13.4, 6.4
2023/01/14 05:00:00,13.2, 6.5
2023/01/14 05:10:00,12.9, 6.6
2023/01/14 05:20:00,12.9, 6.7
2023/01/14 05:30:00,12.5, 6.4
2023/01/14 05:40:00,11.9, 7.0
2023/01/14 05:50:00,11.6, 6.9
2023/01/14 06:00:00,11.4, 6.8
2023/01/14 06:10:00,11.3, 7.0
2023/01/14 06:20:00,11.5, 7.0
2023/01/14 06:30:00,11.5, 7.2
2023/01/14 06:40:00,10.8, 7.4
2023/01/14 06:50:00,10.4, 7.4
2023/01/14 07:00:00,10.4, 7.3
2023/01/14 07:10:00,10.4, 7.0
2023/01/14 07:20:00,10.6, 6.7
2023/01/14 07:30:00,10.6, 7.2
2023/01/14 07:40:00,10.9, 6.7
2023/01/14 07:50:00,11.0, 6.3
2023/01/14 08:00:00,10.9, 6.7
2023/01/14 08:10:00,11.2, 6.9
2023/01/14 08:20:00,10.7, 6.7
2023/01/14 08:30:00,10.4, 7.2
2023/01/14 08:40:00,10.5, 7.2
2023/01/14 08:50:00,10.7, 7.4
2023/01/14 09:00:00,10.2, 7.6
2023/01/14 09:10:00,10.0, 9.2
2023/01/14 09:20:00,10.0, 7.4
2023/01/14 09:30:00,10.0, 8.1
2023/01/14 09:40:00, 9.8, 8.0
2023/01/14 09:50:00, 9.8, 8.1
2023/01/14 10:00:00, 9.7, 7.0
2023/01/14 10:10:00, 9.7, 8.5
2023/01/14 10:20:00, 9.2, 8.4
2023/01/14 10:30:00, 9.0, 8.5
2023/01/14 10:40:00, 9.0, 8.2
2023/01/14 10:50:00, 9.2, 9.0
2023/01/14 11:00:00, 9.3, 8.9
2023/01/14 11:10:00, 9.0, 9.0
2023/01/14 11:20:00, 8.6, 8.7
2023/01/14 11:30:00, 8.4, 9.0
2023/01/14 11:40:00, 8.7, 8.7
2023/01/14 11:50:00, 8.4, 8.7
2023/01/14 12:00:00, 8.5, 8.6
2023/01/14 12:10:00, 8.6, 8.2
2023/01/14 12:20:00, 8.5, 8.4
2023/01/14 12:30:00, 8.3, 8.5
2023/01/14 12:40:00, 8.6, 8.2
2023/01/14 12:50:00, 8.4, 8.3
2023/01/14 13:00:00, 8.1, 8.1
2023/01/14 13:10:00, 7.4, 8.0
2023/01/14 13:20:00, 7.5, 8.2
2023/01/14 13:30:00, 7.6, 8.3
2023/01/14 13:40:00, 7.5, 8.2
2023/01/14 13:50:00, 6.8, 8.6
2023/01/14 14:00:00, 7.2, 8.5
2023/01/14 14:10:00, 7.3, 8.3
2023/01/14 14:20:00, 7.5, 7.2
2023/01/14 14:30:00, 7.0, 8.3
2023/01/14 14:40:00, 7.0, 7.6
2023/01/14 14:50:00, 7.0, 7.8
2023/01/14 15:00:00, 7.1, 8.1
2023/01/14 15:10:00, 6.9, 7.4
2023/01/14 15:20:00, 6.7, 6.9
2023/01/14 15:30:00, 6.6, 6.7
2023/01/14 15:40:00, 6.7, 6.4
2023/01/14 15:50:00, 6.7, 6.7
2023/01/14 16:00:00, 6.7, 6.7
2023/01/14 16:10:00, 6.6, 6.0
2023/01/14 16:20:00, 6.6, 6.3
2023/01/14 16:30:00, 6.6, 5.9
2023/01/14 16:40:00, 6.7, 6.3
2023/01/14 16:50:00, 6.8, 6.2
2023/01/14 17:00:00, 6.5, 5.9
2023/01/14 17:10:00, 6.4, 6.2
2023/01/14 17:20:00, 6.1, 5.7
2023/01/14 17:30:00, 5.9, 5.7
2023/01/14 17:40:00, 5.8, 5.7
2023/01/14 17:50:00, 5.8, 6.0
2023/01/14 18:00:00, 5.6, 5.4
2023/01/14 18:10:00, 5.8, 5.1
2023/01/14 18:20:00, 5.6, 5.4
2023/01/14 18:30:00, 5.3, 5.3
2023/01/14 18:40:00, 5.2, 5.4
2023/01/14 18:50:00, 5.1, 5.1
2023/01/14 19:00:00, 5.1, 5.5
2023/01/14 19:10:00, 5.2, 5.3
2023/01/14 19:20:00, 5.2, 4.9
2023/01/14 19:30:00, 5.2, 5.2
2023/01/14 19:40:00, 5.4, 5.1
2023/01/14 19:50:00, 5.3, 5.7
2023/01/14 20:00:00, 5.2, 4.9
2023/01/14 20:10:00, 5.3, 5.0
2023/01/14 20:20:00, 5.3, 5.0
2023/01/14 20:30:00, 4.6, 5.7
2023/01/14 20:40:00, 4.6, 5.4
2023/01/14 20:50:00, 4.6, 5.3
2023/01/14 21:00:00, 4.6, 5.7
2023/01/14 21:10:00, 4.5, 5.2
2023/01/14 21:20:00, 4.4, 5.6
2023/01/14 21:30:00, 4.5, 5.6
2023/01/14 21:40:00, 4.3, 5.7
2023/01/14 21:50:00, 4.3, 5.4
2023/01/14 22:00:00, 4.3, 4.7
2023/01/14 22:10:00, 4.2, 4.6
2023/01/14 22:20:00, 4.2, 4.9
2023/01/14 22:30:00, 4.5, 4.5
2023/01/14 22:40:00, 4.9, 4.4
2023/01/14 22:50:00, 4.9, 4.4
2023/01/14 23:00:00, 5.1, 4.2
2023/01/14 23:10:00, 5.2, 4.4
2023/01/14 23:20:00, 5.1, 4.4
2023/01/14 23:30:00, 5.0, 5.4
2023/01/14 23:40:00, 4.8, 4.4
2023/01/14 23:50:00, 4.8, 4.3
